EST,Max TemperatureF,Mean TemperatureF,Min TemperatureF,Max Dew PointF,MeanDew PointF,Min DewpointF,Max Humidity, Mean Humidity, Min Humidity, Max Sea Level PressureIn, Mean Sea Level PressureIn, Min Sea Level PressureIn, Max VisibilityMiles, Mean VisibilityMiles, Min VisibilityMiles, Max Wind SpeedMPH, Mean Wind SpeedMPH, Max Gust SpeedMPH,PrecipitationIn, CloudCover, Events, WindDirDegrees
2012-12-1,69,54,39,50,44,37,100,77,38,30.36,30.31,30.28,10,10,7,8,1,16,0.00,1,,163
2012-12-2,71,56,42,55,46,41,100,81,41,30.38,30.32,30.26,10,9,1,7,1,,0.00,1,,193
2012-12-3,71,56,42,54,48,41,100,80,46,30.33,30.28,30.23,10,10,7,7,1,16,0.00,3,,190
2012-12-4,73,58,44,54,50,45,100,76,46,30.33,30.26,30.22,10,10,7,8,1,16,0.00,4,,200
2012-12-5,69,61,51,59,55,48,94,82,56,30.23,30.18,30.14,10,10,10,12,2,,0.00,7,,349
2012-12-6,66,58,51,54,48,43,100,73,52,30.18,30.12,30.08,10,10,10,12,3,16,0.00,5,,105
2012-12-7,64,57,50,52,47,43,94,75,59,30.11,30.05,29.98,10,10,10,8,5,,0.00,6,,124
2012-12-8,68,60,51,61,55,50,100,89,68,30.06,30.02,29.99,10,9,0,9,1,,0.00,8,Fog-Rain,189
2012-12-9,71,62,53,61,56,54,100,85,53,30.10,30.04,29.96,10,7,0,9,2,,0.00,5,Fog,183
2012-12-10,64,55,44,61,57,43,100,92,82,29.97,29.84,29.74,10,9,2,14,6,21,0.00,8,Rain-Thunderstorm,223
2012-12-11,44,38,33,43,33,32,93,84,70,30.14,30.03,29.90,10,10,10,13,8,16,0.00,3,,344
2012-12-12,51,43,35,41,34,32,87,76,58,30.24,30.18,30.14,10,10,10,12,7,,0.00,2,Rain,14
2012-12-13,59,47,35,37,36,34,100,73,42,30.36,30.30,30.23,10,10,10,8,3,,0.00,2,,29
2012-12-14,59,46,32,39,35,32,100,76,42,30.37,30.29,30.19,10,10,7,7,1,,0.00,1,,137
2012-12-15,59,50,41,46,43,37,93,76,59,30.22,30.14,30.07,10,10,10,10,2,,0.00,6,Rain,157
2012-12-16,59,57,55,57,54,45,100,91,67,30.05,29.98,29.90,10,7,1,7,3,,0.00,8,Rain,173
2012-12-17,59,56,53,57,55,54,100,96,88,29.87,29.80,29.73,10,10,5,10,5,,0.00,8,Rain,193
2012-12-18,60,48,35,54,38,28,100,73,31,30.02,29.93,29.77,10,10,10,10,4,16,0.00,1,,300
2012-12-19,68,50,33,45,39,34,100,73,37,30.12,30.05,30.01,10,10,10,7,1,,0.00,0,,202
2012-12-20,59,50,41,59,42,28,100,78,57,30.04,29.87,29.69,10,9,2,15,5,28,0.00,6,Rain,227
2012-12-21,44,38,32,30,20,16,65,49,34,30.21,30.07,29.94,10,10,10,18,12,29,0.00,1,,299
2012-12-22,51,40,30,25,16,10,75,44,20,30.31,30.23,30.19,10,10,10,17,8,24,0.00,0,,317
2012-12-23,55,40,26,34,29,21,87,65,41,30.20,30.14,30.05,10,10,10,6,1,16,0.00,3,Rain,192
2012-12-24,60,52,44,55,48,34,100,93,66,30.04,29.92,29.85,10,7,0,7,3,,0.00,7,Fog-Rain-Thunderstorm,192
2012-12-25,53,48,44,54,50,45,100,99,93,30.00,29.90,29.64,10,4,0,14,3,22,0.00,8,Fog-Rain,101
2012-12-26,59,46,33,55,38,30,100,89,70,30.02,29.74,29.49,10,10,4,16,10,26,0.00,8,Rain,267
2012-12-27,41,36,30,32,31,30,100,86,70,30.12,30.07,30.01,10,10,10,16,8,22,0.00,5,,324
2012-12-28,51,40,30,39,32,27,100,77,40,30.10,30.00,29.87,10,10,3,12,2,17,0.00,3,Rain,126
2012-12-29,42,37,32,41,34,27,100,90,75,29.99,29.86,29.76,10,9,2,13,7,22,0.00,8,Rain,300
2012-12-30,44,36,28,27,25,23,86,69,43,30.42,30.36,30.29,10,10,10,16,8,21,0.00,1,,343
2012-12-31,51,40,28,36,30,27,93,68,41,30.37,30.28,30.14,10,10,10,9,1,,0.00,4,,186